TimeEDT,TemperatureF,Dew PointF,Humidity,Sea Level PressureIn,VisibilityMPH,Wind Direction,Wind SpeedMPH,Gust SpeedMPH,PrecipitationIn,Events,Conditions,WindDirDegrees,DateUTC
12:53 AM,57.9,52.0,81,30.14,10.0,NW,4.6,-,N/A,,Clear,310,2012-10-11 04:53:00
1:53 AM,57.9,51.1,78,30.15,10.0,NNW,3.5,-,N/A,,Clear,340,2012-10-11 05:53:00
2:53 AM,54.0,50.0,86,30.15,10.0,Calm,Calm,-,N/A,,Clear,0,2012-10-11 06:53:00
3:53 AM,53.1,50.0,89,30.16,10.0,Calm,Calm,-,N/A,,Clear,0,2012-10-11 07:53:00
4:53 AM,52.0,48.9,89,30.17,9.0,Calm,Calm,-,N/A,,Clear,0,2012-10-11 08:53:00
5:53 AM,50.0,48.0,93,30.18,8.0,Calm,Calm,-,N/A,,Clear,0,2012-10-11 09:53:00
6:53 AM,53.1,48.9,86,30.20,10.0,NE,3.5,-,N/A,,Clear,40,2012-10-11 10:53:00
7:53 AM,55.0,46.9,74,30.23,10.0,NE,6.9,-,N/A,,Clear,40,2012-10-11 11:53:00
8:53 AM,57.9,46.9,67,30.26,10.0,ENE,8.1,-,N/A,,Clear,60,2012-10-11 12:53:00
9:53 AM,61.0,46.9,60,30.28,10.0,NE,10.4,18.4,N/A,,Clear,50,2012-10-11 13:53:00
10:53 AM,63.0,45.0,52,30.29,10.0,ENE,9.2,18.4,N/A,,Clear,70,2012-10-11 14:53:00
11:53 AM,66.0,45.0,47,30.29,10.0,East,6.9,-,N/A,,Clear,80,2012-10-11 15:53:00
12:53 PM,68.0,44.1,42,30.28,10.0,East,6.9,-,N/A,,Unknown,90,2012-10-11 16:53:00
1:53 PM,70.0,46.0,42,30.26,10.0,East,5.8,-,N/A,,Clear,80,2012-10-11 17:53:00
2:53 PM,71.1,46.0,41,30.25,10.0,Calm,Calm,-,N/A,,Clear,0,2012-10-11 18:53:00
3:53 PM,72.0,46.9,41,30.23,10.0,Calm,Calm,-,N/A,,Clear,0,2012-10-11 19:53:00
4:53 PM,73.0,46.9,39,30.22,10.0,Calm,Calm,-,N/A,,Clear,0,2012-10-11 20:53:00
6:53 PM,64.9,52.0,63,30.23,10.0,Calm,Calm,-,N/A,,Clear,0,2012-10-11 22:53:00
7:53 PM,60.1,54.0,80,30.23,10.0,ESE,3.5,-,N/A,,Clear,110,2012-10-11 23:53:00
8:53 PM,59.0,53.1,81,30.25,10.0,Calm,Calm,-,N/A,,Clear,0,2012-10-12 00:53:00
9:53 PM,57.0,52.0,83,30.25,10.0,Calm,Calm,-,N/A,,Clear,0,2012-10-12 01:53:00
10:53 PM,55.0,52.0,89,30.25,10.0,Calm,Calm,-,N/A,,Clear,0,2012-10-12 02:53:00
11:53 PM,54.0,51.1,90,30.24,8.0,Calm,Calm,-,N/A,,Clear,0,2012-10-12 03:53:00